Weather History for KCOM - February, 2013

Change the Weather History Date:

Thursday, February 7, 2013

  Actual Average (KABI) Record (KABI)
Temperature  
Mean Temperature 60 °F 47 °F  
Max Temperature 72 °F 59 °F 86 °F (1932)
Min Temperature 47 °F 35 °F -2 °F (1895)
Degree Days  
Heating Degree Days 5 18  
Month to date heating degree days 130  
Since 1 July heating degree days 1799  
Cooling Degree Days 0 0  
Month to date cooling degree days 0  
Year to date cooling degree days 1  
Growing Degree Days 10 (Base 50)    
Moisture  
Dew Point 46 °F    
Average Humidity 63    
Maximum Humidity 92    
Minimum Humidity 26    
Precipitation  
Precipitation 0.00 in 0.05 in 1.53 in (1931)
Month to date precipitation 0.30  
Year to date precipitation 1.32  
Sea Level Pressure  
Sea Level Pressure 29.97 in    
Wind  
Wind Speed 10 mph (WNW)    
Max Wind Speed 21 mph    
Max Gust Speed 28 mph    
Visibility 10 miles    
Events      
T = Trace of Precipitation, MM = Missing Value Source: NWS Daily Summary

Daily Weather History Graph

Daily Weather History Graph

Search for Another Location

Airport or City:

Trip Planner

Search our weather history database for the weather conditions in past years. The results will help you decide how hot, cold, wet, or windy it might be!

Date:

Astronomy

Feb. 07, 2013 Rise Set
Actual Time 7:26 AM CST 6:17 PM CST
Civil Twilight 7:01 AM CST 6:42 PM CST
Nautical Twilight 6:32 AM CST 7:11 PM CST
Astronomical Twilight 6:03 AM CST 7:40 PM CST
Moon 5:01 AM CST (2/7) 3:48 PM CST (2/7)
Length of Visible Light 11h 41m
Length of Day
10h 51m
Waning Crescent, 9% of the Moon is Illuminated
Feb 7
Waning Crescent
Feb 10
New
Feb 17
First Quarter
Feb 25
Full
Mar 4
Last Quarter

Hourly Weather History & Observations

Time (CST) Temp. Dew Point Humidity Pressure Visibility Wind Dir Wind Speed Gust Speed Precip Events Conditions
12:15 AM 58.3 °F 53.1 °F 83% 29.88 in 10.0 mi South 9.2 mph - N/A   Clear
12:35 AM 58.1 °F 53.4 °F 84% 29.88 in 10.0 mi South 10.4 mph - N/A   Clear
12:55 AM 58.1 °F 53.8 °F 86% 29.88 in 10.0 mi South 9.2 mph - N/A   Clear
1:15 AM 57.9 °F 53.8 °F 86% 29.88 in 10.0 mi SSE 8.1 mph - N/A   Clear
1:35 AM 57.2 °F 53.6 °F 88% 29.89 in 10.0 mi SSE 4.6 mph - N/A   Clear
1:55 AM 56.5 °F 53.2 °F 89% 29.89 in 10.0 mi South 3.5 mph - N/A   Mostly Cloudy
2:15 AM 57.0 °F 53.6 °F 88% 29.89 in 10.0 mi Calm Calm - N/A   Overcast
2:35 AM 57.2 °F 53.6 °F 88% 29.88 in 10.0 mi South 4.6 mph - N/A   Overcast
2:55 AM 56.5 °F 53.6 °F 90% 29.88 in 10.0 mi SSW 5.8 mph - N/A   Scattered Clouds
3:15 AM 56.3 °F 53.6 °F 91% 29.89 in 10.0 mi SSW 5.8 mph - N/A   Mostly Cloudy
3:35 AM 56.5 °F 53.8 °F 91% 29.90 in 10.0 mi SW 5.8 mph - N/A   Overcast
3:55 AM 56.3 °F 53.4 °F 90% 29.90 in 10.0 mi SSW 8.1 mph - N/A   Overcast
4:15 AM 56.7 °F 53.8 °F 90% 29.90 in 10.0 mi SSW 8.1 mph - N/A   Overcast
4:35 AM 57.4 °F 54.0 °F 88% 29.89 in 10.0 mi SSW 8.1 mph - N/A   Overcast
4:55 AM 57.6 °F 54.0 °F 88% 29.88 in 10.0 mi SSW 6.9 mph - N/A   Overcast
5:15 AM 57.4 °F 53.8 °F 88% 29.88 in 10.0 mi SSW 8.1 mph - N/A   Overcast
5:35 AM 57.0 °F 53.8 °F 89% 29.89 in 10.0 mi SSW 10.4 mph - N/A   Overcast
5:55 AM 57.2 °F 53.8 °F 88% 29.89 in 10.0 mi SSW 9.2 mph - N/A   Mostly Cloudy
6:15 AM 56.7 °F 53.6 °F 89% 29.90 in 10.0 mi SSW 8.1 mph - N/A   Scattered Clouds
6:35 AM 55.8 °F 52.9 °F 90% 29.89 in 10.0 mi SSW 9.2 mph - N/A   Clear
6:55 AM 55.2 °F 52.5 °F 91% 29.89 in 10.0 mi SSW 6.9 mph - N/A   Clear
7:15 AM 54.7 °F 52.0 °F 91% 29.89 in 10.0 mi SSW 4.6 mph - N/A   Clear
7:35 AM 53.6 °F 51.3 °F 92% 29.90 in 10.0 mi SW 4.6 mph - N/A   Clear
7:55 AM 53.8 °F 51.6 °F 92% 29.91 in 10.0 mi SW 6.9 mph - N/A   Clear
8:15 AM 55.6 °F 52.7 °F 90% 29.92 in 10.0 mi SW 6.9 mph - N/A   Clear
8:55 AM 58.8 °F 54.1 °F 84% 29.93 in 10.0 mi SW 6.9 mph - N/A   Clear
9:15 AM 61.2 °F 55.0 °F 80% 29.93 in 10.0 mi WSW 10.4 mph - N/A   Clear
9:35 AM 63.0 °F 55.2 °F 76% 29.93 in 10.0 mi WSW 13.8 mph 21.9 mph N/A   Clear
9:55 AM 64.9 °F 54.5 °F 69% 29.94 in 10.0 mi West 16.1 mph 25.3 mph N/A   Clear
10:15 AM 66.6 °F 52.5 °F 61% 29.94 in 10.0 mi West 16.1 mph 24.2 mph N/A   Clear
10:35 AM 67.8 °F 49.5 °F 52% 29.95 in 10.0 mi West 16.1 mph 27.6 mph N/A   Clear
10:55 AM 68.4 °F 48.6 °F 49% 29.96 in 10.0 mi WNW 16.1 mph 24.2 mph N/A   Clear
11:15 AM 68.4 °F 44.6 °F 42% 29.96 in 10.0 mi WNW 15.0 mph - N/A   Clear
11:35 AM 68.7 °F 40.5 °F 36% 29.96 in 10.0 mi WNW 13.8 mph 20.7 mph N/A   Clear
11:55 AM 69.8 °F 36.7 °F 30% 29.96 in 10.0 mi WNW 12.7 mph 17.3 mph N/A   Clear
12:15 PM 70.2 °F 37.4 °F 30% 29.96 in 10.0 mi NW 12.7 mph 18.4 mph N/A   Clear
12:35 PM 70.5 °F 36.0 °F 28% 29.95 in 10.0 mi NNW 12.7 mph 19.6 mph N/A   Clear
12:55 PM 70.3 °F 35.4 °F 28% 29.95 in 10.0 mi NNW 16.1 mph 20.7 mph N/A   Clear
1:15 PM 70.7 °F 35.1 °F 27% 29.95 in 10.0 mi WNW 11.5 mph 19.6 mph N/A   Clear
1:35 PM 71.2 °F 34.5 °F 26% 29.95 in 10.0 mi NNW 16.1 mph 24.2 mph N/A   Clear
1:55 PM 71.1 °F 34.5 °F 26% 29.94 in 10.0 mi NNW 12.7 mph 20.7 mph N/A   Clear
2:15 PM 71.4 °F 34.9 °F 26% 29.95 in 10.0 mi NNW 15.0 mph - N/A   Clear
2:35 PM 71.6 °F 35.8 °F 27% 29.95 in 10.0 mi NW 15.0 mph 20.7 mph N/A   Clear
2:55 PM 71.8 °F 36.1 °F 27% 29.95 in 10.0 mi North 16.1 mph 23.0 mph N/A   Clear
3:15 PM 72.0 °F 36.1 °F 27% 29.96 in 10.0 mi NNW 17.3 mph 25.3 mph N/A   Clear
3:35 PM 71.2 °F 35.8 °F 27% 29.96 in 10.0 mi North 16.1 mph 20.7 mph N/A   Clear
3:55 PM 71.2 °F 36.3 °F 28% 29.97 in 10.0 mi North 16.1 mph 23.0 mph N/A   Clear
4:15 PM 70.5 °F 37.0 °F 29% 29.97 in 10.0 mi North 16.1 mph 23.0 mph N/A   Clear
4:35 PM 69.6 °F 37.9 °F 31% 29.98 in 10.0 mi NNW 17.3 mph 24.2 mph N/A   Clear
4:55 PM 68.9 °F 38.1 °F 32% 29.99 in 10.0 mi North 17.3 mph 24.2 mph N/A   Clear
5:15 PM 67.8 °F 39.0 °F 35% 29.99 in 10.0 mi North 20.7 mph - N/A   Clear
5:55 PM 63.9 °F 43.5 °F 48% 30.03 in 10.0 mi North 19.6 mph 25.3 mph N/A   Clear
6:15 PM 61.7 °F 44.2 °F 53% 30.04 in 10.0 mi North 15.0 mph - N/A   Clear
6:35 PM 60.1 °F 44.2 °F 56% 30.05 in 10.0 mi North 13.8 mph - N/A   Clear
6:55 PM 58.8 °F 44.6 °F 59% 30.06 in 10.0 mi North 9.2 mph - N/A   Clear
7:15 PM 57.7 °F 44.6 °F 62% 30.07 in 10.0 mi North 8.1 mph - N/A   Clear
7:35 PM 56.3 °F 44.2 °F 64% 30.08 in 10.0 mi North 6.9 mph - N/A   Clear
7:55 PM 55.4 °F 43.9 °F 65% 30.09 in 10.0 mi North 9.2 mph - N/A   Clear
8:15 PM 56.1 °F 42.8 °F 61% 30.11 in 10.0 mi North 13.8 mph - N/A   Clear
8:35 PM 56.1 °F 41.5 °F 58% 30.11 in 10.0 mi North 10.4 mph - N/A   Clear
8:55 PM 54.3 °F 40.8 °F 60% 30.13 in 10.0 mi North 8.1 mph - N/A   Clear
9:15 PM 52.3 °F 40.6 °F 64% 30.14 in 10.0 mi North 11.5 mph - N/A   Clear
9:35 PM 53.4 °F 40.5 °F 61% 30.15 in 10.0 mi North 11.5 mph - N/A   Clear
9:55 PM 52.9 °F 40.3 °F 62% 30.15 in 10.0 mi North 8.1 mph - N/A   Clear
10:15 PM 51.3 °F 40.3 °F 66% 30.16 in 10.0 mi North 9.2 mph - N/A   Clear
10:35 PM 50.5 °F 40.1 °F 67% 30.17 in 10.0 mi North 8.1 mph - N/A   Clear
10:55 PM 49.5 °F 40.1 °F 70% 30.17 in 10.0 mi North 9.2 mph - N/A   Clear
11:15 PM 48.7 °F 39.9 °F 72% 30.18 in 10.0 mi North 8.1 mph - N/A   Clear
11:55 PM 47.5 °F 39.4 °F 73% 30.19 in 10.0 mi North 8.1 mph - N/A   Clear